Location: Kawakawa
(35.3830°S, 174.0670°E)
Time: 16:41:14
(UTC+12:00)

Cosmos 1151 Rocket - Pass Details

Date: 15 August 2020
Orbit: 593 x 615 km, 82.5° (Epoch: 25 September)

Event Time Altitude Azimuth Distance (km) Brightness Sun altitude
Rises 18:39:06 0° 32° (NNE) 2,860 6.2 -10.2°
Reaches altitude 10° 18:41:54 10° 51° (NE) 1,970 5.3 -10.7°
Maximum altitude 18:44:49 18° 93° (E) 1,544 4.4 -11.3°
Enters shadow 18:46:26 15° 119° (ESE) 1,697 4.7 -11.6°
